Regional Weather Roundup
Issued by NWS

Home | Current Version | Previous Version | Text Only | Print | Product List | Glossary On
Versions: 1 2 3 4 5 6 7 8 9 10 11 12 13 14 15 16 17 18 19 20 21 22 23 24 25 26 27 28 29 30 31 32 33 34 35 36 37 38 39 40 41 42 43 44 45 46 47 48 49 50
000
ASUS43 KBIS 260402
RWRND

NORTH DAKOTA REGIONAL WEATHER ROUNDUP
NATIONAL WEATHER SERVICE BISMARCK ND
1100 PM CDT SUN SEP 25 2016

NOTE: "FAIR" INDICATES FEW OR NO CLOUDS BELOW 12,000 FEET WITH NO
SIGNIFICANT WEATHER AND/OR OBSTRUCTIONS TO VISIBILITY.


NDZ001>003-009>011-017-260500-
NORTHWEST NORTH DAKOTA

CITY           SKY/WX    TMP DP  RH WIND       PRES   REMARKS
WILLISTON      CLEAR     45  34  65 W8        30.20S
MINOT          CLEAR     53  34  48 W15       30.12S
MINOT AFB      CLEAR     50  36  59 NW14      30.11S
$$

NDZ018>021-031>035-040>046-260500-
SOUTHWEST NORTH DAKOTA

CITY           SKY/WX    TMP DP  RH WIND       PRES   REMARKS
BISMARCK       CLEAR     49  35  58 W10       30.18R
DICKINSON      CLEAR     48  35  60 NW9       30.21S
GARRISON         N/A     47  35  63 NW13      30.15S
HETTINGER ARPT CLEAR     42  35  76 NW3       30.26S
$$

NDZ004>008-012>016-024-026-027-054-260500-
NORTHEAST NORTH DAKOTA

CITY           SKY/WX    TMP DP  RH WIND       PRES   REMARKS
GRAND FORKS    PTCLDY    56  41  57 NW17      29.94S
GRND FRKS AFB  CLOUDY    56  39  52 NW18G25   29.95S
DEVILS LAKE    CLEAR     51  38  60 W15       30.04S
$$

NDZ022-023-025-028>030-036>039-047>053-260500-
SOUTHEAST NORTH DAKOTA

CITY           SKY/WX    TMP DP  RH WIND       PRES   REMARKS
FARGO          CLOUDY    58  42  55 W13       29.98S
JAMESTOWN      CLEAR     51  37  58 NW16      30.07R
$$




USA.gov is the U.S. government's official web portal to all federal, state and local government web resources and services.